Weather Roundup
Issued by NWS Chicago, IL

Home | Current Version | Previous Version | Text Only | Print | Product List | Glossary On
Versions: 1 2 3 4 5 6 7 8 9 10 11 12 13 14 15 16 17 18 19 20 21 22 23 24 25 26 27 28 29 30 31 32 33 34 35 36 37 38 39 40 41 42 43 44 45 46 47 48 49 50
305
NZUS59 KLOT 230809
HRRLOT

CHICAGO AREA WEATHER ROUNDUP
NATIONAL WEATHER SERVICE CHICAGO/ROMEOVILLE IL
300 AM CDT SAT SEP 23 2017

NOTE: "FAIR" INDICATES FEW OR NO CLOUDS BELOW 12,000 FEET WITH NO
SIGNIFICANT WEATHER AND/OR OBSTRUCTIONS TO VISIBILITY.

* THESE STATIONS ARE NOT UNDER NWS QUALITY CONTROL. THEY ALSO MAY NOT
  REPORT WEATHER SUCH AS PRECIPITATION OR FOG.

ILZ005-006-012>014-019>023-230900-
NORTHEAST ILLINOIS

CITY           SKY/WX    TMP DP  RH WIND       PRES   REMARKS
OHARE          CLEAR     73  65  75 CALM      30.03S
MIDWAY         CLEAR     79  67  66 CALM      30.03F HX  81
AURORA         CLEAR     68  65  90 CALM      30.04F
LANSING*       CLEAR     69  68  96 CALM      30.04S
JOLIET*        CLEAR     69  68  96 CALM      30.03F
WAUKEGAN       CLEAR     73  68  84 SW6       30.02F HAZE
DUPAGE AIRPORT CLEAR     68  66  93 CALM      30.03F FOG
WHEELING       CLEAR     72  69  90 CALM      30.04S
MORRIS*        CLEAR     73  65  76 CALM      30.02F
LEWIS AIRPORT* CLEAR     71  66  85 S3        30.04S
NORTHERLY ISL    N/A     80  64  58 SW3         N/A  HX  82
$$

WIZ051-052-058>065-066-070>072-230900-
SOUTHEAST WISCONSIN

CITY           SKY/WX    TMP DP  RH WIND       PRES   REMARKS
MILWAUKEE      CLEAR     75  67  76 SW6       30.02S
KENOSHA*       CLEAR     70  65  84 SW6       30.02F
RACINE*        CLEAR     74  67  78 SW6       30.03F
WAUKESHA       CLEAR     70  63  78 S3        30.04S
WEST BEND        N/A     66  64  94 CALM      30.03S
$$

INZ001>003-010>013-019-020-230900-
NORTHWEST INDIANA

CITY           SKY/WX    TMP DP  RH WIND       PRES   REMARKS
GARY*          CLEAR     68  66  94 CALM      30.04F
MICHIGAN CITY* NOT AVBL
RENSSELAER*    NOT AVBL
VALPARAISO     CLEAR     69  67  93 NE3       30.06S FOG
$$

LMZ740>746-230900-
SOUTHERN LAKE MICHIGAN

STATION/POSITION TIME  SKY/WX   TEMP WIND        PRES    VSBY
                                AIR  DIR/SP/G
                 (UTC)          (F)  (DEG/KT/KT) (MB)    (MI)
HARRISON CRIB    0740            82  200/ 11/ 12   N/A
BURNHAM HARBOR   0800            80                N/A
CALUMET HARBOR   0742            78  210/  3/  5 1016.4F
BURNS HARBOR     0803            76  180/  5/  9 1017.6
MICHIGAN CITY    0740            76  140/  7/  8   N/A
$$

ABBREVIATIONS USED IN REMARKS
   TC - TEMPERATURE IN CELSIUS
  WCI - WIND CHILL INDEX
   HX - HEAT INDEX
  VSB - VISIBILITY
$$




USA.gov is the U.S. government's official web portal to all federal, state and local government web resources and services.